Regional Weather Roundup
Issued by NWS

Home | Current Version | Previous Version | Text Only | Print | Product List | Glossary Off
Versions: 1 2 3 4 5 6 7 8 9 10 11 12 13 14 15 16 17 18 19 20 21 22 23 24 25 26 27 28 29 30 31 32 33 34 35 36 37 38 39 40 41 42 43 44 45 46 47 48 49 50

000
ASUS43 KDTX 030410
RWRMI
MICHIGAN HOURLY REGIONAL WEATHER ROUNDUP
NATIONAL WEATHER SERVICE DETROIT/PONTIAC MI
1200 AM EDT THU SEP 03 2015

NOTE: "FAIR" INDICATES FEW OR NO CLOUDS BELOW 12,000 FEET WITH NO
SIGNIFICANT WEATHER AND/OR OBSTRUCTION TO VISIBILITY.

MIZ047>049-052>055-059>063-066>070-074>076-081>083-030500-
SOUTHEAST LOWER MICHIGAN

CITY           SKY/WX    TMP DP  RH WIND       PRES   REMARKS
ADRIAN         FAIR      70  67  90 NW5       30.00F
ALMA           CLOUDY    72  69  89 S3        29.99S
ANN ARBOR      PTCLDY    68  67  96 W3        29.99F FOG
BAD AXE        MOCLDY    68  67  95 CALM      29.95S
CARO           CLEAR     65  64  96 CALM      29.95F
DETROIT CITY   PTCLDY    76  66  71 CALM      29.98S
DETROIT        MOCLDY    77  67  71 CALM      29.98F
FLINT          PTCLDY    69  64  84 CALM      29.98F
GROSSE ILE     CLEAR     73  68  83 CALM      29.97S
HILLSDALE      PTCLDY    69  69 100 CALM      30.02S FOG
HOWELL         PTCLDY    74  69  84 CALM      30.00S

CITY           SKY/WX    TMP DP  RH WIND       PRES   REMARKS
JACKSON        PTCLDY    70  69  97 SW7       30.00F FOG
LAMBERTVILLE   CLEAR     71  68  91 CALM      30.00R FOG
LANSING        MOCLDY    73  69  87 CALM      30.00F FOG
LAPEER         FOG       66  66 100 CALM      29.98F VSB 3/4
MASON          PTCLDY    69  66  90 CALM      30.00S FOG
MONROE         CLEAR     71  68  89 W3        29.97S
MT. CLEMENS    PTCLDY    69  67  93 S5        29.95F
PONTIAC        PTCLDY    72  69  90 CALM      29.98F
PORT HOPE        N/A     70  69  97 CALM      29.93F
PORT HURON     MOCLDY    70  68  94 CALM      29.97S
TRI CITIES     MOCLDY    71  66  84 SW6       29.97F
MIDLAND        FAIR      68  67  96 CALM      29.96S
TROY           PTCLDY    76  67  72 SW6       29.99F
SAGINAW HB     PTCLDY    68  64  88 S6        29.96F
$$
MIZ043>046-050>051-056>058-064>065-071>073-077>080-030500-
SOUTHWEST LOWER MICHIGAN

CITY           SKY/WX    TMP DP  RH WIND       PRES   REMARKS
BATTLE CREEK   PTCLDY    74  69  85 CALM      30.01F
BENTON HARBOR  PTCLDY    71  68  90 CALM      29.99S
BIG RAPIDS     MOCLDY    70  68  95 CALM      30.00R FOG
COLDWATER      PTCLDY    70  70  99 CALM      30.01S FOG
FREMONT        FAIR      71  71 100 CALM      29.98S FOG
HOLLAND        MOCLDY    75  70  84 CALM      29.99S
GRAND RAPIDS   MOCLDY    73  70  90 S6        29.98F
IONIA          FAIR      72  70  93 CALM      29.98F
KALAMAZOO      PTCLDY    73  69  87 S5        30.00S
LUDINGTON      PTCLDY    75  71  86 CALM      29.97S
MARSHALL       PTCLDY    69  68  95 CALM      30.00S
MOUNT PLEASANT CLOUDY    73  67  84 CALM      29.98S
MUSKEGON       PTCLDY    73  68  84 CALM      29.98S HAZE
SOUTH HAVEN    MOCLDY    72  69  90 CALM      29.99S
$$
MIZ016>042-030500-
NORTHERN LOWER MICHIGAN

CITY           SKY/WX    TMP DP  RH WIND       PRES   REMARKS
ALPENA         MOCLDY    66  65  96 CALM      29.99S
BEAVER ISLAND  CLOUDY    69  67  95 E3        29.96S
BELLAIRE       CLOUDY    69  66  93 CALM      29.97S
CADILLAC       MOCLDY    67  65  93 E3        30.02R
CHARLEVOIX     CLOUDY    71  71 100 SE5       29.99S FOG
FRANKFORT      PTCLDY    71  69  95 CALM      29.95F
GAYLORD        CLOUDY    66  66 100 CALM      30.01R
GRAYLING       MOCLDY    65  63  91 CALM      30.01R
HARBOR SPRINGS CLOUDY    70  68  95 CALM      29.98R
HOUGHTON LAKE  MOCLDY    64  64 100 CALM      30.00S FOG
MANISTEE       PTCLDY    72  68  88 E5        29.97F
OSCODA         MOCLDY    69  69  97 N7        29.95S
PELLSTON       CLOUDY    70  69  97 SE3       29.98R
ROGERS CITY    CLOUDY    69  65  88 CALM      30.00R
TRAVERSE CITY  MOCLDY    73  68  84 CALM      29.95F
$$
MIZ007>008-015-030500-
EASTERN UPPER MICHIGAN

CITY           SKY/WX    TMP DP  RH WIND       PRES   REMARKS
KINROSS        CLOUDY    66  64  94 NW5       29.98R
MACKINAC ISLAN CLOUDY    68  65  92 CALM      29.98R
NEWBERRY       CLOUDY    66  65  99 N3        29.97S
S. S. MARIE    CLOUDY    66  62  87 CALM      29.96F
MUNISING         N/A     66  64  93 S5        29.98R
$$
MIZ004>006-011>014-085-030500-
CENTRAL UPPER MICHIGAN

CITY           SKY/WX    TMP DP  RH WIND       PRES   REMARKS
MANISTIQUE     LGT RAIN  68  67  96 NW5       29.98R
ESCANABA       CLOUDY    70  70 100 N3        29.95S THUNDER
MENOMINEE      CLOUDY    66  63  88 NE5       29.93R
SAWYER-GWINN   LGT RAIN  67  64  90 SE3       30.00S
$$
MIZ001>003-009>011-084-030500-
WESTERN UPPER MICHIGAN

CITY           SKY/WX    TMP DP  RH WIND       PRES   REMARKS
IRON MOUNTAIN  RAIN      66  64  93 N7        29.97S FOG
HOUGHTON       FOG       63  62  97 E3        29.99R VSB 1/4
COPPER HARBOR    N/A     63  61  93 SW5       29.98S
IRONWOOD         N/A     61  61 100 CALM      29.96S VSB 1/2
$$

ABBREVIATIONS USED IN REMARKS
   TC - TEMPERATURE IN CELSIUS
  WCI - WIND CHILL INDEX
   HX - HEAT INDEX
  VSB - VISIBILITY




USA.gov is the U.S. government's official web portal to all federal, state and local government web resources and services.